Location: Newark
(50.4348°N, 30.5552°E)
Time: 01:10:24
(UTC+00:00)

Vanguard 3 - Pass Details

Date: 22 January 2020
Orbit: 508 x 3263 km, 33.3° (Epoch: 26 February)

Event Time Altitude Azimuth Distance (km) Brightness Sun altitude
Rises 19:46:26 0° 261° (W) 6,978 12.3 -48.3°
Reaches altitude 10° 19:52:09 10° 254° (WSW) 5,664 11.7 -49.0°
Enters shadow 20:01:24 28° 226° (SW) 3,686 10.3 -50.2°
